This demonstration page uses our WeatherBlox Daily Observations layout. Learn more.

Left ArrowRight Arrow

39.51506, -84.39828

Hourly Observations for June 10, 2015

Temp ( °F °C ) Dew Point ( °F °C ) Humidity (%) Winds ( mph kmh ) Pressure ( in mb ) Visibility ( mi km ) Precip ( " mm )
12:15 am 00:15 Clear with Mist and Fog 61 16 58 14.2 89 89 N N/A 29.88 1012 4 6 N/A
12:35 am 00:35 Clear 61 16.1 58 14.3 89 89 N N/A 29.88 1012 7 11 N/A
12:55 am 00:55 Clear with Mist and Fog 61 16 57 14 88 88 N N/A 29.88 1012 5 8 N/A
1:15 am 01:15 Clear with Mist and Fog 60 15.3 56 13.5 89 89 N N/A 29.88 1012 5 8 N/A
1:35 am 01:35 Clear with Mist and Fog 60 15.8 57 14 89 89 N N/A 29.88 1012 5 8 N/A
1:55 am 01:55 Clear with Mist and Fog 60 15.3 56 13.5 89 89 N N/A 29.88 1012 4 6 N/A
2:15 am 02:15 Mostly Cloudy with Mist and Fog 60 15.3 56 13.5 89 89 N N/A 29.88 1012 1 2 N/A
2:35 am 02:35 Mostly Cloudy with Fog 60 15.3 56 13.5 89 89 N N/A 29.88 1012 0 0 N/A
2:55 am 02:55 Mostly Cloudy with Fog 60 15.3 56 13.6 90 90 N N/A 29.88 1012 1 1 N/A
3:15 am 03:15 Clear with Mist and Fog 60 15.3 56 13.6 90 90 N N/A 29.88 1012 3 5 N/A
3:35 am 03:35 Clear with Mist and Fog 60 15.3 56 13.6 90 90 N N/A 29.88 1012 3 5 N/A
3:55 am 03:55 Clear with Mist and Fog 60 15.3 56 13.6 90 90 N N/A 29.85 1011 2 3 N/A
4:15 am 04:15 Mostly Cloudy with Fog 59 15.2 56 13.5 90 90 N N/A 29.85 1011 1 1 N/A
4:35 am 04:35 Mostly Cloudy with Mist and Fog 60 15.3 57 13.7 90 90 N N/A 29.85 1011 1 1 N/A
4:55 am 04:55 Mostly Cloudy with Fog 57 14 54 12.4 90 90 N N/A 29.88 1012 0 0 N/A
5:15 am 05:15 Mostly Cloudy with Fog 60 15.3 57 13.7 90 90 N N/A 29.85 1011 1 1 N/A
5:35 am 05:35 Mostly Cloudy with Fog 60 15.3 57 13.7 90 90 N N/A 29.85 1011 0 0 N/A
5:55 am 05:55 Mostly Cloudy with Fog 60 15.3 57 13.7 90 90 N N/A 29.85 1011 0 0 N/A
6:15 am 06:15 Mostly Cloudy with Fog 60 15.3 57 13.7 90 90 N N/A 29.85 1011 5 8 N/A
6:35 am 06:35 Mostly Cloudy with Fog 60 15.3 57 13.7 90 90 N N/A 29.85 1011 5 8 N/A
6:55 am 06:55 Mostly Cloudy with Fog 60 15.3 57 13.8 91 91 N N/A 29.88 1012 5 8 N/A
7:15 am 07:15 Mostly Cloudy with Fog 61 16 58 14.5 91 91 N N/A 29.88 1012 5 8 N/A
7:35 am 07:35 Sunny with Mist and Fog 63 17.1 60 15.6 91 91 N N/A 29.88 1012 3 4 N/A
7:55 am 07:55 Sunny with Mist and Fog 64 18 62 16.5 91 91 SW 3 6 29.88 1012 4 6 N/A
8:15 am 08:15 Sunny with Mist and Fog 67 19.4 64 17.8 91 91 N N/A 29.88 1012 5 8 N/A
8:35 am 08:35 Sunny 69 20.8 66 19 90 90 SW 6 9 29.88 1012 7 11 N/A
8:55 am 08:55 Sunny 71 21.8 64 17.6 77 77 WSW 5 7 29.88 1012 7 11 N/A
9:15 am 09:15 Sunny 74 23.6 64 18 71 71 WSW 5 7 29.88 1012 7 11 N/A
9:35 am 09:35 Sunny 75 24 63 17.2 66 66 SW 7 11 29.88 1012 7 11 N/A
9:55 am 09:55 Sunny 77 25.1 62 16.9 60 60 SW 7 11 29.88 1012 10 16 N/A
10:15 am 10:15 Sunny 79 25.9 63 17 58 58 SW 7 11 29.88 1012 10 16 N/A
10:35 am 10:35 Sunny 80 26.5 62 16.7 55 55 SW 8 13 29.85 1011 10 16 N/A
10:55 am 10:55 Sunny 81 27.2 63 17 54 54 SSW 10 17 29.85 1011 10 16 N/A
11:15 am 11:15 Sunny 82 28 63 17.2 52 52 SSW 8 13 29.85 1011 10 16 N/A
11:35 am 11:35 Sunny 83 28.6 62 16.6 48 48 SW 9 15 29.85 1011 10 16 N/A
11:55 am 11:55 Sunny 84 28.9 61 16.2 46 46 SW 10 17 29.85 1011 10 16 N/A
12:15 pm 12:15 Sunny 87 30.7 63 17.2 44 44 WSW 12 19 29.85 1011 10 16 N/A
12:35 pm 12:35 Partly Cloudy 87 30.7 63 17 44 44 WSW 8 13 29.85 1011 10 16 N/A
12:55 pm 12:55 Partly Cloudy 90 32.1 61 16.2 38 38 WSW 12 19 29.85 1011 10 16 N/A
1:15 pm 13:15 Sunny 90 32.1 61 16.2 38 38 W 12 19 29.83 1010 10 16 N/A
1:35 pm 13:35 Sunny 90 32.1 59 15.1 36 36 W 15 24 29.83 1010 10 16 N/A
1:55 pm 13:55 Sunny 90 32.1 60 15.5 37 37 WSW 8 13 29.83 1010 10 16 N/A
2:15 pm 14:15 Sunny 90 32.1 59 14.8 35 35 SW 13 20 29.83 1010 10 16 N/A
2:35 pm 14:35 Sunny 90 32.1 57 13.9 33 33 SW 8 13 29.80 1009 10 16 N/A
2:55 pm 14:55 Sunny 90 32.1 56 13.1 31 31 SW 13 20 29.80 1009 10 16 N/A
3:15 pm 15:15 Sunny 90 32.1 56 13.5 32 32 WSW 13 20 29.80 1009 10 16 N/A
3:35 pm 15:35 Sunny 90 32.1 56 13.5 32 32 SW 15 24 29.80 1009 10 16 N/A
3:55 pm 15:55 Sunny 90 32.1 55 13 31 31 SW 14 22 29.80 1009 10 16 N/A
4:15 pm 16:15 Sunny 91 32.5 57 13.7 32 32 SSW 10 17 29.80 1009 10 16 N/A
4:35 pm 16:35 Sunny 90 32.4 55 12.7 30 30 WSW 13 20 29.80 1009 10 16 N/A
4:55 pm 16:55 Sunny 92 33.4 57 13.8 30 30 SW 14 22 29.80 1009 10 16 N/A
5:15 pm 17:15 Sunny 90 32.3 54 12.3 29 29 SW 17 28 29.80 1009 10 16 N/A
5:35 pm 17:35 Sunny 91 32.8 57 14 32 32 SW 13 20 29.80 1009 10 16 N/A
5:55 pm 17:55 Sunny 90 32.1 57 13.7 33 33 SW 13 20 29.80 1009 10 16 N/A
6:15 pm 18:15 Sunny 90 32.1 56 13.6 32 32 WSW 14 22 29.80 1009 10 16 N/A
6:35 pm 18:35 Sunny 90 32.1 58 14.6 35 35 SW 13 20 29.80 1009 10 16 N/A
6:55 pm 18:55 Sunny 90 32.1 58 14.6 35 35 SW 13 20 29.80 1009 10 16 N/A
7:15 pm 19:15 Sunny 90 32.1 59 15.2 36 36 WSW 12 19 29.80 1009 10 16 N/A
7:35 pm 19:35 Sunny 90 32.1 61 15.9 38 38 SW 10 17 29.80 1009 10 16 N/A
7:55 pm 19:55 Sunny 85 29.5 58 14.6 40 40 SW 7 11 29.80 1009 10 16 N/A
8:15 pm 20:15 Sunny 83 28.4 59 15.1 44 44 SW 8 13 29.80 1009 10 16 N/A
8:35 pm 20:35 Sunny 82 28 59 15.1 45 45 SW 7 11 29.80 1009 10 16 N/A
8:55 pm 20:55 Sunny 81 27.2 60 15.7 49 49 SW 7 11 29.80 1009 10 16 N/A
9:15 pm 21:15 Clear 80 26.5 62 16.6 55 55 SW 7 11 29.80 1009 10 16 N/A
9:35 pm 21:35 Clear 77 25.1 61 16.1 57 57 SW 6 9 29.83 1010 10 16 N/A
9:55 pm 21:55 Clear 75 24 63 17 65 65 WSW 5 7 29.83 1010 10 16 N/A
10:15 pm 22:15 Clear 74 23.6 65 18.2 72 72 WSW 5 7 29.83 1010 10 16 N/A
10:35 pm 22:35 Clear 74 23.6 64 17.9 70 70 WSW 3 6 29.85 1011 10 16 N/A
10:55 pm 22:55 Clear 74 23.6 63 17.3 68 68 SW 5 7 29.85 1011 10 16 N/A
11:15 pm 23:15 Clear 74 23.6 63 17.2 67 67 SSW 5 7 29.85 1011 10 16 N/A
11:35 pm 23:35 Clear 74 23.6 64 17.9 70 70 SW 5 7 29.85 1011 10 16 N/A
11:55 pm 23:55 Clear 74 23.6 64 18 71 71 SSW 3 6 29.88 1012 10 16 N/A

Powered by AerisWeather